Regional Weather Roundup
Issued by NWS

Home | Current Version | Previous Version | Text Only | Print | Product List | Glossary On
Versions: 1 2 3 4 5 6 7 8 9 10 11 12 13 14 15 16 17 18 19 20 21 22 23 24 25 26 27 28 29 30 31 32 33 34 35 36 37 38 39 40 41 42 43 44 45 46 47 48 49 50
000
ASUS43 KLSX 221359
RWRMO

WEATHER SUMMARY FOR MISSOURI
NATIONAL WEATHER SERVICE SPRINGFIELD MO
800 AM CST MON DEC 22 2014

NOTE: "FAIR" INDICATES FEW OR NO CLOUDS BELOW 12,000 FEET WITH NO
       SIGNIFICANT WEATHER AND/OR OBSTRUCTIONS TO VISIBILITY.
       CURRENT SKY AND/OR WEATHER CONDITIONS ARE NOT AVAILABLE FOR
       CHILLICOTHE AND FARMINGTON.

MOZ001>031-035>038-043-044-053-054-221500-
...NORTHERN AND WESTERN MISSOURI...

CITY           SKY/WX    TMP DP  RH WIND       PRES   REMARKS
KANSAS CTY INT LGT RAIN  42  41  96 S9        29.59F FOG
KANSAS C DTWN  CLOUDY    44  41  89 S6        29.60F
LEE`S SUMMIT   CLOUDY    42  40  92 SE8       29.61F
ST JOSEPH      LGT RAIN  42  40  92 SE9       29.59F
CHILLICOTHE      N/A     41  37  86 SE6       29.65F
KIRKSVILLE     LGT RAIN  39  36  89 SE10      29.67F

$$
MOZ066>068-077>081-088>096-101>105-221500-
...SOUTHWEST MISSOURI...

CITY           SKY/WX    TMP DP  RH WIND       PRES   REMARKS
SPRINGFIELD    LGT RAIN  43  41  93 SE14      29.64F
JOPLIN         CLOUDY    46  43  89 SE7       29.61F

$$
MOZ032>034-039>042-045>050-055>058-069>072-221500-
...CENTRAL MISSOURI...

CITY           SKY/WX    TMP DP  RH WIND       PRES   REMARKS
COLUMBIA       CLOUDY    40  38  93 SE9       29.67F
JEFFERSON CITY CLOUDY    41  39  93 E5        29.69F FOG
ROLLA          CLOUDY    42  40  92 S9        29.67S
SEDALIA        CLOUDY    42  38  85 SE7       29.65S
OSAGE BEACH    CLOUDY    43  37  81 S6        29.67F

$$
MOZ051-052-059>065-221500-
...EAST CENTRAL MISSOURI...

CITY           SKY/WX    TMP DP  RH WIND       PRES   REMARKS
ST LOUIS INTL  LGT RAIN  41  38  89 SE15      29.75F FOG
SPIRIT OF STL  LGT RAIN  40  37  89 SE9       29.73F FOG
ST CHARLES     LGT RAIN  39  38  96 E12       29.74F FOG

$$
MOZ072>076-082>087-097>100-106>115-221500-
...SOUTH CENTRAL AND SOUTHEAST MISSOURI...

CITY           SKY/WX    TMP DP  RH WIND       PRES   REMARKS
CAPE GIRARDEAU LGT RAIN  44  43  96 SE8       29.83F FOG
FARMINGTON     CLOUDY    43  41  93 E15       29.75F
POPLAR BLUFF   LGT RAIN  45  43  93 SE10      29.78F FOG
WEST PLAINS    LGT RAIN  45  42  89 S9G18     29.71F

$$



USA.gov is the U.S. government's official web portal to all federal, state and local government web resources and services.